Accueil
METAR-TAF:

METAR-TAF

Aéroports :

Emmen, Suisse

latitude: 47-05-32N, longitude: 8-18-16E, altitude: 426 m

Observation

Le bulletin a été fait il y a 46 minutes, à 01:50 UTC
Vent calme
Température 6°C
Humidité 75%
Pression 1007 hPa
Visibilité 10 km ou plus
Quelques nuages à une hauteur de 13000 ft
Nuages épars à une hauteur de 22000 ft

METAR: LSME 010150Z AUTO 00000KT 9999NDV FEW130 SCT220 06/02 Q1007 RMK

Heure: 04:36 (02:36 UTC)


TAF: absent

Observations et prévisions météorologiques de plus de 4000 aéroports (messages METAR et TAF).

Les stations disponibles sont représentées par des disques jaunes et rouges sur la carte.

Passer la souris dessus pour voir le nom de la station.

Cliquer dessus pour voir les observations et prévisions météorologiques.

Pour changer de carte: cliquez sur les boutons verts avec une croix noire pour zoomer, sur le bouton vert avec un tiret pour effectuer un zoom arrière, ou sur les flèches vertes pour les cartes adjacentes.


METAR-TAF: